sat.trackr.live / text

‹ back to catalog

TRANSPORTER-11 OBJECT AU

NORAD 60510 · 2024-149AU

PAYLOAD ACTIVE UNKNOWN

§ Identity

Operator
Country
TBD
Launch date
2024-08-16
Launch site
AFWTR
Launch vehicle
Mass (kg)
RCS (m²)

External: N2YO · Heavens-Above · Gunter

§ Orbital elements

Epoch: 2026-09-21T18:44:40.199712Z

Period
93.34 min
Inclination
97.3676°
Eccentricity
0.0002239
Mean motion
15.42704725 rev/d
Perigee alt
436.6 km
Apogee alt
439.7 km
Semi-major
6,816.3 km
B*
2.6699e-4
RAAN
349.4171°
Arg perigee
312.1844°
Mean anomaly
47.9213°
Rev number
11,719

§ Raw data

TRANSPORTER-11 OBJECT AU1 60510U 24149AU  26264.78102083  .00011568  00000+0  26699-3 0  99962 60510  97.3676 349.4171 0002239 312.1844  47.9213 15.42704725117192

JSON: /api/v1/satellites/60510 · /tle

For live sub-satellite position, see the globe view (requires WebGL).

§ Visibility from observer

Set your observer location to see the next 7 days of passes ≥ 10°. The values pass through the URL so the page stays shareable.

No JS? Fill the form by hand. The geolocation button needs JavaScript.